Regional Weather Roundup
Issued by NWS Little Rock, AR

Home | Current Version | Previous Version | Graphics & Text | Print | Product List | Glossary On
Versions: 1 2 3 4 5 6 7 8 9 10 11 12 13 14 15 16 17 18 19 20 21 22 23 24 25 26 27 28 29 30 31
000
ASUS44 KLZK 191705
RWRLZK

WEATHER ROUNDUP FOR ARKANSAS
NATIONAL WEATHER SERVICE LITTLE ROCK AR
1200 PM CDT TUE SEP 19 2017

NOTE: "FAIR" INDICATES FEW OR NO CLOUDS BELOW 12,000 FEET WITH NO
SIGNIFICANT WEATHER AND/OR OBSTRUCTIONS TO VISIBILITY.

ARZ001-003-010-029-191800-
NORTHWEST ARKANSAS

CITY           SKY/WX    TMP DP  RH WIND       PRES   REMARKS
FAYETTEVILLE   MOSUNNY   82  71  69 SW10G20   29.97F HX  86
FORT SMITH     CLOUDY    86  71  60 CALM      29.94S HX  91
HARRISON       SUNNY     86  66  51 SE9       29.99F HX  88
BENTONVILLE    MOSUNNY   82  70  66 SW12      29.98F HX  86
ROGERS         MOSUNNY   84  70  62 S10       29.98F HX  88
SILOAM SPGS    PTSUNNY   83  71  67 S13       29.95F HX  87
HIGHFILL       MOSUNNY   84  71  65 S14       29.96F HX  89
SPRINGDALE     MOSUNNY   82  68  61 SW10G17   29.99F HX  85
$$

ARZ004-005-016-191800-
NORTH CENTRAL ARKANSAS

CITY           SKY/WX    TMP DP  RH WIND       PRES   REMARKS
BATESVILLE     SUNNY    N/A N/A N/A VRB6      29.97F
FLIPPIN        SUNNY     84  71  65 VRB3      29.96F HX  89
MTN HOME       SUNNY     84  69  60 S3        29.96F HX  88
$$

ARZ040-041-191800-
WEST CENTRAL ARKANSAS

CITY           SKY/WX    TMP DP  RH WIND       PRES   REMARKS
MENA           CLOUDY    86  77  74 CALM      29.99S HX  97
MOUNT IDA      MOSUNNY   86  68  54 VRB5      29.95F HX  89
$$

ARZ009-017-025-026-028-191800-
NORTHEAST ARKANSAS

CITY           SKY/WX    TMP DP  RH WIND       PRES   REMARKS
JONESBORO      SUNNY     85  75  72 SW3       29.96F HX  93
NEWPORT        SUNNY     85  72  65 SW9       29.96F HX  91
BLYTHEVILLE    MOSUNNY   85  74  69 CALM      29.97F HX  92
NW BLYTHEVILLE MOSUNNY   86  72  62 SW3       29.97  HX  92
$$

ARZ022-023-033-042-044-191800-
CENTRAL ARKANSAS

CITY           SKY/WX    TMP DP  RH WIND       PRES   REMARKS
LITTLE ROCK    MOSUNNY   86  73  65 SW10      29.96F HX  93
N LITTLE ROCK    N/A     87  72  61 S6        29.96F HX  93
JACKSONVILLE   SUNNY     89  72  57 S7        29.96F HX  95
CONWAY           N/A     90  72  55 SE8       29.94F HX  96
SEARCY         SUNNY     87  75  67 S7        29.98F HX  96
HOT SPRINGS    MOSUNNY   88  71  57 S9        29.97F HX  94
RUSSELLVILLE   SUNNY     86  71  60 VRB6      29.94F HX  91
CLINTON        FAIR      86  72  62 NW5       29.97S HX  92
$$

ARZ036-191800-
EAST ARKANSAS

CITY           SKY/WX    TMP DP  RH WIND       PRES   REMARKS
WEST MEMPHIS   SUNNY     87  74  64 VRB6      29.97F HX  95
$$

ARZ050-053-066-070-073-191800-
SOUTHWEST ARKANSAS

CITY           SKY/WX    TMP DP  RH WIND       PRES   REMARKS
ARKADELPHIA    FAIR      86  75  69 SW6       29.97F HX  95
CAMDEN         PTSUNNY   86  72  62 SW7       29.97F HX  92
TEXARKANA      PTSUNNY   81  74  79 S12       29.98F HX  86
EL DORADO      PTSUNNY   85  74  69 S9        30.00S HX  92
$$

ARZ056-057-069-191800-
SOUTHEAST ARKANSAS

CITY           SKY/WX    TMP DP  RH WIND       PRES   REMARKS
PINE BLUFF     MOSUNNY   85  72  65 W9        29.98F HX  91
STUTTGART      MOSUNNY   88  72  58 SW10      29.97F HX  94
MONTICELLO     MOSUNNY   86  73  65 SW9       29.98F HX  93

$$






USA.gov is the U.S. government's official web portal to all federal, state and local government web resources and services.